Netzbetreibername:;Licht-und Kraftwerke Sonneberg GmbH;;
Netz- oder Umspannebene:;Umspannung MS/NS;;
Lastgangtyp:;Lastverlauf Einspeisung;;
gesetzliche Grundlage:;� 23c Abs. 3 Nr. 6;;
Einheit:;kW;;
Betrachtungszeitraum:;01.01.2023;bis;31.12.2023
Kontrollsumme;;;756.253
Datum;von;bis;Wert
01.01.2023;00:00;00:15;90
01.01.2023;00:15;00:30;90
01.01.2023;00:30;00:45;90
01.01.2023;00:45;01:00;90
01.01.2023;01:00;01:15;90
01.01.2023;01:15;01:30;90
01.01.2023;01:30;01:45;90
01.01.2023;01:45;02:00;89
01.01.2023;02:00;02:15;90
01.01.2023;02:15;02:30;90
01.01.2023;02:30;02:45;90
01.01.2023;02:45;03:00;90
01.01.2023;03:00;03:15;90
01.01.2023;03:15;03:30;90
01.01.2023;03:30;03:45;89
01.01.2023;03:45;04:00;90
01.01.2023;04:00;04:15;90
01.01.2023;04:15;04:30;90
01.01.2023;04:30;04:45;89
01.01.2023;04:45;05:00;90
01.01.2023;05:00;05:15;89
01.01.2023;05:15;05:30;90
01.01.2023;05:30;05:45;89
01.01.2023;05:45;06:00;90
01.01.2023;06:00;06:15;90
01.01.2023;06:15;06:30;90
01.01.2023;06:30;06:45;90
01.01.2023;06:45;07:00;90
01.01.2023;07:00;07:15;89
01.01.2023;07:15;07:30;90
01.01.2023;07:30;07:45;89
01.01.2023;07:45;08:00;90
01.01.2023;08:00;08:15;90
01.01.2023;08:15;08:30;90
01.01.2023;08:30;08:45;91
01.01.2023;08:45;09:00;91
01.01.2023;09:00;09:15;93
01.01.2023;09:15;09:30;94
01.01.2023;09:30;09:45;95
01.01.2023;09:45;10:00;96
01.01.2023;10:00;10:15;100
01.01.2023;10:15;10:30;106
01.01.2023;10:30;10:45;106
01.01.2023;10:45;11:00;102
01.01.2023;11:00;11:15;102
01.01.2023;11:15;11:30;103
01.01.2023;11:30;11:45;111
01.01.2023;11:45;12:00;106
01.01.2023;12:00;12:15;112
01.01.2023;12:15;12:30;110
01.01.2023;12:30;12:45;110
01.01.2023;12:45;13:00;110
01.01.2023;13:00;13:15;111
01.01.2023;13:15;13:30;108
01.01.2023;13:30;13:45;100
01.01.2023;13:45;14:00;103
01.01.2023;14:00;14:15;102
01.01.2023;14:15;14:30;95
01.01.2023;14:30;14:45;94
01.01.2023;14:45;15:00;91
01.01.2023;15:00;15:15;92
01.01.2023;15:15;15:30;91
01.01.2023;15:30;15:45;89
01.01.2023;15:45;16:00;89
01.01.2023;16:00;16:15;89
01.01.2023;16:15;16:30;88
01.01.2023;16:30;16:45;89
01.01.2023;16:45;17:00;88
01.01.2023;17:00;17:15;88
01.01.2023;17:15;17:30;88
01.01.2023;17:30;17:45;89
01.01.2023;17:45;18:00;90
01.01.2023;18:00;18:15;88
01.01.2023;18:15;18:30;89
01.01.2023;18:30;18:45;89
01.01.2023;18:45;19:00;87
01.01.2023;19:00;19:15;88
01.01.2023;19:15;19:30;89
01.01.2023;19:30;19:45;88
01.01.2023;19:45;20:00;88
01.01.2023;20:00;20:15;89
01.01.2023;20:15;20:30;88
01.01.2023;20:30;20:45;88
01.01.2023;20:45;21:00;89
01.01.2023;21:00;21:15;90
01.01.2023;21:15;21:30;90
01.01.2023;21:30;21:45;89
01.01.2023;21:45;22:00;90
01.01.2023;22:00;22:15;90
01.01.2023;22:15;22:30;89
01.01.2023;22:30;22:45;89
01.01.2023;22:45;23:00;90
01.01.2023;23:00;23:15;90
01.01.2023;23:15;23:30;90
01.01.2023;23:30;23:45;90
01.01.2023;23:45;00:00;90
02.01.2023;00:00;00:15;90
02.01.2023;00:15;00:30;89
02.01.2023;00:30;00:45;90
02.01.2023;00:45;01:00;90
02.01.2023;01:00;01:15;90
02.01.2023;01:15;01:30;90
02.01.2023;01:30;01:45;90
02.01.2023;01:45;02:00;89
02.01.2023;02:00;02:15;90
02.01.2023;02:15;02:30;90
02.01.2023;02:30;02:45;89
02.01.2023;02:45;03:00;90
02.01.2023;03:00;03:15;89
02.01.2023;03:15;03:30;89
02.01.2023;03:30;03:45;90
02.01.2023;03:45;04:00;90
02.01.2023;04:00;04:15;90
02.01.2023;04:15;04:30;89
02.01.2023;04:30;04:45;90
02.01.2023;04:45;05:00;89
02.01.2023;05:00;05:15;89
02.01.2023;05:15;05:30;89
02.01.2023;05:30;05:45;89
02.01.2023;05:45;06:00;89
02.01.2023;06:00;06:15;88
02.01.2023;06:15;06:30;89
02.01.2023;06:30;06:45;89
02.01.2023;06:45;07:00;88
02.01.2023;07:00;07:15;89
02.01.2023;07:15;07:30;88
02.01.2023;07:30;07:45;89
02.01.2023;07:45;08:00;88
02.01.2023;08:00;08:15;89
02.01.2023;08:15;08:30;89
02.01.2023;08:30;08:45;90
02.01.2023;08:45;09:00;91
02.01.2023;09:00;09:15;92
02.01.2023;09:15;09:30;94
02.01.2023;09:30;09:45;96
02.01.2023;09:45;10:00;95
02.01.2023;10:00;10:15;94
02.01.2023;10:15;10:30;93
02.01.2023;10:30;10:45;95
02.01.2023;10:45;11:00;95
02.01.2023;11:00;11:15;101
02.01.2023;11:15;11:30;101
02.01.2023;11:30;11:45;98
02.01.2023;11:45;12:00;112
02.01.2023;12:00;12:15;114
02.01.2023;12:15;12:30;106
02.01.2023;12:30;12:45;100
02.01.2023;12:45;13:00;99
02.01.2023;13:00;13:15;98
02.01.2023;13:15;13:30;99
02.01.2023;13:30;13:45;100
02.01.2023;13:45;14:00;101
02.01.2023;14:00;14:15;100
02.01.2023;14:15;14:30;99
02.01.2023;14:30;14:45;97
02.01.2023;14:45;15:00;93
02.01.2023;15:00;15:15;92
02.01.2023;15:15;15:30;90
02.01.2023;15:30;15:45;89
02.01.2023;15:45;16:00;87
02.01.2023;16:00;16:15;88
02.01.2023;16:15;16:30;89
02.01.2023;16:30;16:45;90
02.01.2023;16:45;17:00;90
02.01.2023;17:00;17:15;90
02.01.2023;17:15;17:30;88
02.01.2023;17:30;17:45;87
02.01.2023;17:45;18:00;89
02.01.2023;18:00;18:15;89
02.01.2023;18:15;18:30;88
02.01.2023;18:30;18:45;89
02.01.2023;18:45;19:00;89
02.01.2023;19:00;19:15;88
02.01.2023;19:15;19:30;89
02.01.2023;19:30;19:45;88
02.01.2023;19:45;20:00;88
02.01.2023;20:00;20:15;88
02.01.2023;20:15;20:30;88
02.01.2023;20:30;20:45;88
02.01.2023;20:45;21:00;89
02.01.2023;21:00;21:15;90
02.01.2023;21:15;21:30;89
02.01.2023;21:30;21:45;90
02.01.2023;21:45;22:00;89
02.01.2023;22:00;22:15;89
02.01.2023;22:15;22:30;89
02.01.2023;22:30;22:45;90
02.01.2023;22:45;23:00;90
02.01.2023;23:00;23:15;89
02.01.2023;23:15;23:30;90
02.01.2023;23:30;23:45;91
02.01.2023;23:45;00:00;90
03.01.2023;00:00;00:15;90
03.01.2023;00:15;00:30;89
03.01.2023;00:30;00:45;90
03.01.2023;00:45;01:00;90
03.01.2023;01:00;01:15;90
03.01.2023;01:15;01:30;91
03.01.2023;01:30;01:45;90
03.01.2023;01:45;02:00;89
03.01.2023;02:00;02:15;91
03.01.2023;02:15;02:30;91
03.01.2023;02:30;02:45;91
03.01.2023;02:45;03:00;90
03.01.2023;03:00;03:15;90
03.01.2023;03:15;03:30;91
03.01.2023;03:30;03:45;91
03.01.2023;03:45;04:00;91
03.01.2023;04:00;04:15;91
03.01.2023;04:15;04:30;89
03.01.2023;04:30;04:45;89
03.01.2023;04:45;05:00;91
03.01.2023;05:00;05:15;90
03.01.2023;05:15;05:30;90
03.01.2023;05:30;05:45;89
03.01.2023;05:45;06:00;90
03.01.2023;06:00;06:15;90
03.01.2023;06:15;06:30;90
03.01.2023;06:30;06:45;88
03.01.2023;06:45;07:00;90
03.01.2023;07:00;07:15;90
03.01.2023;07:15;07:30;90
03.01.2023;07:30;07:45;90
03.01.2023;07:45;08:00;89
03.01.2023;08:00;08:15;90
03.01.2023;08:15;08:30;90
03.01.2023;08:30;08:45;90
03.01.2023;08:45;09:00;90
03.01.2023;09:00;09:15;90
03.01.2023;09:15;09:30;91
03.01.2023;09:30;09:45;92
03.01.2023;09:45;10:00;94
03.01.2023;10:00;10:15;93
03.01.2023;10:15;10:30;96
03.01.2023;10:30;10:45;98
03.01.2023;10:45;11:00;96
03.01.2023;11:00;11:15;95
03.01.2023;11:15;11:30;96
03.01.2023;11:30;11:45;101
03.01.2023;11:45;12:00;96
03.01.2023;12:00;12:15;96
03.01.2023;12:15;12:30;93
03.01.2023;12:30;12:45;100
03.01.2023;12:45;13:00;106
03.01.2023;13:00;13:15;109
03.01.2023;13:15;13:30;100
03.01.2023;13:30;13:45;106
03.01.2023;13:45;14:00;106
03.01.2023;14:00;14:15;105
03.01.2023;14:15;14:30;104
03.01.2023;14:30;14:45;98
03.01.2023;14:45;15:00;99
03.01.2023;15:00;15:15;95
03.01.2023;15:15;15:30;93
03.01.2023;15:30;15:45;90
03.01.2023;15:45;16:00;90
03.01.2023;16:00;16:15;90
03.01.2023;16:15;16:30;89
03.01.2023;16:30;16:45;90
03.01.2023;16:45;17:00;89
03.01.2023;17:00;17:15;90
03.01.2023;17:15;17:30;89
03.01.2023;17:30;17:45;89
03.01.2023;17:45;18:00;89
03.01.2023;18:00;18:15;89
03.01.2023;18:15;18:30;90
03.01.2023;18:30;18:45;89
03.01.2023;18:45;19:00;89
03.01.2023;19:00;19:15;89
03.01.2023;19:15;19:30;90
03.01.2023;19:30;19:45;89
03.01.2023;19:45;20:00;89
03.01.2023;20:00;20:15;90
03.01.2023;20:15;20:30;90
03.01.2023;20:30;20:45;89
03.01.2023;20:45;21:00;89
03.01.2023;21:00;21:15;89
03.01.2023;21:15;21:30;90
03.01.2023;21:30;21:45;90
03.01.2023;21:45;22:00;90
03.01.2023;22:00;22:15;89
03.01.2023;22:15;22:30;90
03.01.2023;22:30;22:45;90
03.01.2023;22:45;23:00;90
03.01.2023;23:00;23:15;90
03.01.2023;23:15;23:30;90
03.01.2023;23:30;23:45;91
03.01.2023;23:45;00:00;91
04.01.2023;00:00;00:15;90
04.01.2023;00:15;00:30;89
04.01.2023;00:30;00:45;91
04.01.2023;00:45;01:00;90
04.01.2023;01:00;01:15;90
04.01.2023;01:15;01:30;91
04.01.2023;01:30;01:45;91
04.01.2023;01:45;02:00;90
04.01.2023;02:00;02:15;91
04.01.2023;02:15;02:30;91
04.01.2023;02:30;02:45;90
04.01.2023;02:45;03:00;90
04.01.2023;03:00;03:15;90
04.01.2023;03:15;03:30;90
04.01.2023;03:30;03:45;91
04.01.2023;03:45;04:00;90
04.01.2023;04:00;04:15;91
04.01.2023;04:15;04:30;90
04.01.2023;04:30;04:45;89
04.01.2023;04:45;05:00;90
04.01.2023;05:00;05:15;91
04.01.2023;05:15;05:30;90
04.01.2023;05:30;05:45;90
04.01.2023;05:45;06:00;89
04.01.2023;06:00;06:15;90
04.01.2023;06:15;06:30;90
04.01.2023;06:30;06:45;89
04.01.2023;06:45;07:00;89
04.01.2023;07:00;07:15;90
04.01.2023;07:15;07:30;91
04.01.2023;07:30;07:45;90
04.01.2023;07:45;08:00;89
04.01.2023;08:00;08:15;89
04.01.2023;08:15;08:30;91
04.01.2023;08:30;08:45;90
04.01.2023;08:45;09:00;90
04.01.2023;09:00;09:15;90
04.01.2023;09:15;09:30;90
04.01.2023;09:30;09:45;91
04.01.2023;09:45;10:00;90
04.01.2023;10:00;10:15;90
04.01.2023;10:15;10:30;90
04.01.2023;10:30;10:45;91
04.01.2023;10:45;11:00;92
04.01.2023;11:00;11:15;91
04.01.2023;11:15;11:30;90
04.01.2023;11:30;11:45;90
04.01.2023;11:45;12:00;91
04.01.2023;12:00;12:15;90
04.01.2023;12:15;12:30;90
04.01.2023;12:30;12:45;90
04.01.2023;12:45;13:00;92
04.01.2023;13:00;13:15;91
04.01.2023;13:15;13:30;91
04.01.2023;13:30;13:45;91
04.01.2023;13:45;14:00;93
04.01.2023;14:00;14:15;92
04.01.2023;14:15;14:30;91
04.01.2023;14:30;14:45;90
04.01.2023;14:45;15:00;89
04.01.2023;15:00;15:15;90
04.01.2023;15:15;15:30;90
04.01.2023;15:30;15:45;89
04.01.2023;15:45;16:00;89
04.01.2023;16:00;16:15;89
04.01.2023;16:15;16:30;90
04.01.2023;16:30;16:45;89
04.01.2023;16:45;17:00;89
04.01.2023;17:00;17:15;89
04.01.2023;17:15;17:30;90
04.01.2023;17:30;17:45;89
04.01.2023;17:45;18:00;89
04.01.2023;18:00;18:15;89
04.01.2023;18:15;18:30;90
04.01.2023;18:30;18:45;89
04.01.2023;18:45;19:00;89
04.01.2023;19:00;19:15;89
04.01.2023;19:15;19:30;89
04.01.2023;19:30;19:45;89
04.01.2023;19:45;20:00;90
04.01.2023;20:00;20:15;89
04.01.2023;20:15;20:30;89
04.01.2023;20:30;20:45;91
04.01.2023;20:45;21:00;89
04.01.2023;21:00;21:15;90
04.01.2023;21:15;21:30;89
04.01.2023;21:30;21:45;90
04.01.2023;21:45;22:00;90
04.01.2023;22:00;22:15;90
04.01.2023;22:15;22:30;89
04.01.2023;22:30;22:45;90
04.01.2023;22:45;23:00;91
04.01.2023;23:00;23:15;91
04.01.2023;23:15;23:30;90
04.01.2023;23:30;23:45;91
04.01.2023;23:45;00:00;91
05.01.2023;00:00;00:15;90
05.01.2023;00:15;00:30;89
05.01.2023;00:30;00:45;90
05.01.2023;00:45;01:00;90
05.01.2023;01:00;01:15;91
05.01.2023;01:15;01:30;91
05.01.2023;01:30;01:45;91
05.01.2023;01:45;02:00;90
05.01.2023;02:00;02:15;91
05.01.2023;02:15;02:30;91
05.01.2023;02:30;02:45;90
05.01.2023;02:45;03:00;91
05.01.2023;03:00;03:15;90
05.01.2023;03:15;03:30;91
05.01.2023;03:30;03:45;90
05.01.2023;03:45;04:00;90
05.01.2023;04:00;04:15;91
05.01.2023;04:15;04:30;90
05.01.2023;04:30;04:45;89
05.01.2023;04:45;05:00;90
05.01.2023;05:00;05:15;89
05.01.2023;05:15;05:30;89
05.01.2023;05:30;05:45;89
05.01.2023;05:45;06:00;89
05.01.2023;06:00;06:15;90
05.01.2023;06:15;06:30;90
05.01.2023;06:30;06:45;89
05.01.2023;06:45;07:00;90
05.01.2023;07:00;07:15;89
05.01.2023;07:15;07:30;90
05.01.2023;07:30;07:45;89
05.01.2023;07:45;08:00;89
05.01.2023;08:00;08:15;90
05.01.2023;08:15;08:30;89
05.01.2023;08:30;08:45;90
05.01.2023;08:45;09:00;89
05.01.2023;09:00;09:15;89
05.01.2023;09:15;09:30;91
05.01.2023;09:30;09:45;91
05.01.2023;09:45;10:00;91
05.01.2023;10:00;10:15;90
05.01.2023;10:15;10:30;90
05.01.2023;10:30;10:45;91
05.01.2023;10:45;11:00;94
05.01.2023;11:00;11:15;101
05.01.2023;11:15;11:30;95
05.01.2023;11:30;11:45;93
05.01.2023;11:45;12:00;93
05.01.2023;12:00;12:15;91
05.01.2023;12:15;12:30;94
05.01.2023;12:30;12:45;98
05.01.2023;12:45;13:00;94
05.01.2023;13:00;13:15;92
05.01.2023;13:15;13:30;93
05.01.2023;13:30;13:45;95
05.01.2023;13:45;14:00;93
05.01.2023;14:00;14:15;91
05.01.2023;14:15;14:30;93
05.01.2023;14:30;14:45;100
05.01.2023;14:45;15:00;100
05.01.2023;15:00;15:15;96
05.01.2023;15:15;15:30;95
05.01.2023;15:30;15:45;92
05.01.2023;15:45;16:00;91
05.01.2023;16:00;16:15;89
05.01.2023;16:15;16:30;89
05.01.2023;16:30;16:45;90
05.01.2023;16:45;17:00;89
05.01.2023;17:00;17:15;90
05.01.2023;17:15;17:30;89
05.01.2023;17:30;17:45;89
05.01.2023;17:45;18:00;90
05.01.2023;18:00;18:15;89
05.01.2023;18:15;18:30;89
05.01.2023;18:30;18:45;89
05.01.2023;18:45;19:00;90
05.01.2023;19:00;19:15;90
05.01.2023;19:15;19:30;89
05.01.2023;19:30;19:45;89
05.01.2023;19:45;20:00;90
05.01.2023;20:00;20:15;89
05.01.2023;20:15;20:30;90
05.01.2023;20:30;20:45;90
05.01.2023;20:45;21:00;89
05.01.2023;21:00;21:15;90
05.01.2023;21:15;21:30;89
05.01.2023;21:30;21:45;90
05.01.2023;21:45;22:00;90
05.01.2023;22:00;22:15;90
05.01.2023;22:15;22:30;90
05.01.2023;22:30;22:45;90
05.01.2023;22:45;23:00;90
05.01.2023;23:00;23:15;90
05.01.2023;23:15;23:30;90
05.01.2023;23:30;23:45;91
05.01.2023;23:45;00:00;90
06.01.2023;00:00;00:15;90
06.01.2023;00:15;00:30;90
06.01.2023;00:30;00:45;90
06.01.2023;00:45;01:00;90
06.01.2023;01:00;01:15;91
06.01.2023;01:15;01:30;91
06.01.2023;01:30;01:45;90
06.01.2023;01:45;02:00;90
06.01.2023;02:00;02:15;91
06.01.2023;02:15;02:30;90
06.01.2023;02:30;02:45;90
06.01.2023;02:45;03:00;91
06.01.2023;03:00;03:15;90
06.01.2023;03:15;03:30;91
06.01.2023;03:30;03:45;90
06.01.2023;03:45;04:00;91
06.01.2023;04:00;04:15;91
06.01.2023;04:15;04:30;90
06.01.2023;04:30;04:45;90
06.01.2023;04:45;05:00;90
06.01.2023;05:00;05:15;90
06.01.2023;05:15;05:30;89
06.01.2023;05:30;05:45;89
06.01.2023;05:45;06:00;89
06.01.2023;06:00;06:15;90
06.01.2023;06:15;06:30;89
06.01.2023;06:30;06:45;90
06.01.2023;06:45;07:00;90
06.01.2023;07:00;07:15;90
06.01.2023;07:15;07:30;89
06.01.2023;07:30;07:45;90
06.01.2023;07:45;08:00;89
06.01.2023;08:00;08:15;90
06.01.2023;08:15;08:30;89
06.01.2023;08:30;08:45;90
06.01.2023;08:45;09:00;90
06.01.2023;09:00;09:15;89
06.01.2023;09:15;09:30;90
06.01.2023;09:30;09:45;91
06.01.2023;09:45;10:00;92
06.01.2023;10:00;10:15;90
06.01.2023;10:15;10:30;90
06.01.2023;10:30;10:45;92
06.01.2023;10:45;11:00;93
06.01.2023;11:00;11:15;94
06.01.2023;11:15;11:30;94
06.01.2023;11:30;11:45;93
06.01.2023;11:45;12:00;93
06.01.2023;12:00;12:15;90
06.01.2023;12:15;12:30;90
06.01.2023;12:30;12:45;91
06.01.2023;12:45;13:00;92
06.01.2023;13:00;13:15;91
06.01.2023;13:15;13:30;90
06.01.2023;13:30;13:45;90
06.01.2023;13:45;14:00;91
06.01.2023;14:00;14:15;91
06.01.2023;14:15;14:30;92
06.01.2023;14:30;14:45;90
06.01.2023;14:45;15:00;91
06.01.2023;15:00;15:15;90
06.01.2023;15:15;15:30;89
06.01.2023;15:30;15:45;89
06.01.2023;15:45;16:00;90
06.01.2023;16:00;16:15;89
06.01.2023;16:15;16:30;89
06.01.2023;16:30;16:45;89
06.01.2023;16:45;17:00;90
06.01.2023;17:00;17:15;90
06.01.2023;17:15;17:30;89
06.01.2023;17:30;17:45;89
06.01.2023;17:45;18:00;90
06.01.2023;18:00;18:15;89
06.01.2023;18:15;18:30;90
06.01.2023;18:30;18:45;89
06.01.2023;18:45;19:00;89
06.01.2023;19:00;19:15;90
06.01.2023;19:15;19:30;89
06.01.2023;19:30;19:45;89
06.01.2023;19:45;20:00;90
06.01.2023;20:00;20:15;90
06.01.2023;20:15;20:30;89
06.01.2023;20:30;20:45;89
06.01.2023;20:45;21:00;90
06.01.2023;21:00;21:15;90
06.01.2023;21:15;21:30;90
06.01.2023;21:30;21:45;89
06.01.2023;21:45;22:00;90
06.01.2023;22:00;22:15;89
06.01.2023;22:15;22:30;90
06.01.2023;22:30;22:45;89
06.01.2023;22:45;23:00;90
06.01.2023;23:00;23:15;91
06.01.2023;23:15;23:30;90
06.01.2023;23:30;23:45;91
06.01.2023;23:45;00:00;90
07.01.2023;00:00;00:15;90
07.01.2023;00:15;00:30;90
07.01.2023;00:30;00:45;90
07.01.2023;00:45;01:00;91
07.01.2023;01:00;01:15;90
07.01.2023;01:15;01:30;91
07.01.2023;01:30;01:45;91
07.01.2023;01:45;02:00;90
07.01.2023;02:00;02:15;90
07.01.2023;02:15;02:30;90
07.01.2023;02:30;02:45;90
07.01.2023;02:45;03:00;91
07.01.2023;03:00;03:15;90
07.01.2023;03:15;03:30;90
07.01.2023;03:30;03:45;90
07.01.2023;03:45;04:00;90
07.01.2023;04:00;04:15;91
07.01.2023;04:15;04:30;90
07.01.2023;04:30;04:45;89
07.01.2023;04:45;05:00;91
07.01.2023;05:00;05:15;90
07.01.2023;05:15;05:30;91
07.01.2023;05:30;05:45;90
07.01.2023;05:45;06:00;90
07.01.2023;06:00;06:15;90
07.01.2023;06:15;06:30;90
07.01.2023;06:30;06:45;89
07.01.2023;06:45;07:00;90
07.01.2023;07:00;07:15;90
07.01.2023;07:15;07:30;89
07.01.2023;07:30;07:45;90
07.01.2023;07:45;08:00;90
07.01.2023;08:00;08:15;90
07.01.2023;08:15;08:30;90
07.01.2023;08:30;08:45;90
07.01.2023;08:45;09:00;89
07.01.2023;09:00;09:15;91
07.01.2023;09:15;09:30;91
07.01.2023;09:30;09:45;92
07.01.2023;09:45;10:00;94
07.01.2023;10:00;10:15;95
07.01.2023;10:15;10:30;99
07.01.2023;10:30;10:45;95
07.01.2023;10:45;11:00;94
07.01.2023;11:00;11:15;92
07.01.2023;11:15;11:30;91
07.01.2023;11:30;11:45;93
07.01.2023;11:45;12:00;93
07.01.2023;12:00;12:15;93
07.01.2023;12:15;12:30;94
07.01.2023;12:30;12:45;93
07.01.2023;12:45;13:00;93
07.01.2023;13:00;13:15;92
07.01.2023;13:15;13:30;91
07.01.2023;13:30;13:45;91
07.01.2023;13:45;14:00;92
07.01.2023;14:00;14:15;90
07.01.2023;14:15;14:30;91
07.01.2023;14:30;14:45;93
07.01.2023;14:45;15:00;92
07.01.2023;15:00;15:15;91
07.01.2023;15:15;15:30;90
07.01.2023;15:30;15:45;89
07.01.2023;15:45;16:00;90
07.01.2023;16:00;16:15;89
07.01.2023;16:15;16:30;89
07.01.2023;16:30;16:45;89
07.01.2023;16:45;17:00;90
07.01.2023;17:00;17:15;89
07.01.2023;17:15;17:30;89
07.01.2023;17:30;17:45;88
07.01.2023;17:45;18:00;89
07.01.2023;18:00;18:15;89
07.01.2023;18:15;18:30;90
07.01.2023;18:30;18:45;89
07.01.2023;18:45;19:00;89
07.01.2023;19:00;19:15;90
07.01.2023;19:15;19:30;89
07.01.2023;19:30;19:45;90
07.01.2023;19:45;20:00;89
07.01.2023;20:00;20:15;89
07.01.2023;20:15;20:30;90
07.01.2023;20:30;20:45;89
07.01.2023;20:45;21:00;89
07.01.2023;21:00;21:15;90
07.01.2023;21:15;21:30;90
07.01.2023;21:30;21:45;90
07.01.2023;21:45;22:00;89
07.01.2023;22:00;22:15;90
07.01.2023;22:15;22:30;89
07.01.2023;22:30;22:45;91
07.01.2023;22:45;23:00;90
07.01.2023;23:00;23:15;90
07.01.2023;23:15;23:30;90
07.01.2023;23:30;23:45;91
07.01.2023;23:45;00:00;90
08.01.2023;00:00;00:15;91
08.01.2023;00:15;00:30;90
08.01.2023;00:30;00:45;91
08.01.2023;00:45;01:00;90
08.01.2023;01:00;01:15;90
08.01.2023;01:15;01:30;91
08.01.2023;01:30;01:45;90
08.01.2023;01:45;02:00;90
08.01.2023;02:00;02:15;90
08.01.2023;02:15;02:30;90
08.01.2023;02:30;02:45;90
08.01.2023;02:45;03:00;91
08.01.2023;03:00;03:15;91
08.01.2023;03:15;03:30;90
08.01.2023;03:30;03:45;91
08.01.2023;03:45;04:00;90
08.01.2023;04:00;04:15;91
08.01.2023;04:15;04:30;91
08.01.2023;04:30;04:45;90
08.01.2023;04:45;05:00;90
08.01.2023;05:00;05:15;91
08.01.2023;05:15;05:30;90
08.01.2023;05:30;05:45;90
08.01.2023;05:45;06:00;90
08.01.2023;06:00;06:15;90
08.01.2023;06:15;06:30;91
08.01.2023;06:30;06:45;91
08.01.2023;06:45;07:00;89
08.01.2023;07:00;07:15;89
08.01.2023;07:15;07:30;90
08.01.2023;07:30;07:45;91
08.01.2023;07:45;08:00;90
08.01.2023;08:00;08:15;90
08.01.2023;08:15;08:30;90
08.01.2023;08:30;08:45;90
08.01.2023;08:45;09:00;90
08.01.2023;09:00;09:15;90
08.01.2023;09:15;09:30;90
08.01.2023;09:30;09:45;91
08.01.2023;09:45;10:00;91
08.01.2023;10:00;10:15;92
08.01.2023;10:15;10:30;92
08.01.2023;10:30;10:45;91
08.01.2023;10:45;11:00;93
08.01.2023;11:00;11:15;92
08.01.2023;11:15;11:30;92
08.01.2023;11:30;11:45;91
08.01.2023;11:45;12:00;93
08.01.2023;12:00;12:15;92
08.01.2023;12:15;12:30;91
08.01.2023;12:30;12:45;92
08.01.2023;12:45;13:00;92
08.01.2023;13:00;13:15;91
08.01.2023;13:15;13:30;91
08.01.2023;13:30;13:45;91
08.01.2023;13:45;14:00;91
08.01.2023;14:00;14:15;92
08.01.2023;14:15;14:30;91
08.01.2023;14:30;14:45;90
08.01.2023;14:45;15:00;90
08.01.2023;15:00;15:15;91
08.01.2023;15:15;15:30;90
08.01.2023;15:30;15:45;89
08.01.2023;15:45;16:00;89
08.01.2023;16:00;16:15;89
08.01.2023;16:15;16:30;89
08.01.2023;16:30;16:45;89
08.01.2023;16:45;17:00;89
08.01.2023;17:00;17:15;90
08.01.2023;17:15;17:30;89
08.01.2023;17:30;17:45;89
08.01.2023;17:45;18:00;89
08.01.2023;18:00;18:15;89
08.01.2023;18:15;18:30;89
08.01.2023;18:30;18:45;89
08.01.2023;18:45;19:00;89
08.01.2023;19:00;19:15;89
08.01.2023;19:15;19:30;89
08.01.2023;19:30;19:45;90
08.01.2023;19:45;20:00;89
08.01.2023;20:00;20:15;89
08.01.2023;20:15;20:30;89
08.01.2023;20:30;20:45;90
08.01.2023;20:45;21:00;90
08.01.2023;21:00;21:15;89
08.01.2023;21:15;21:30;90
08.01.2023;21:30;21:45;90
08.01.2023;21:45;22:00;90
08.01.2023;22:00;22:15;89
08.01.2023;22:15;22:30;90
08.01.2023;22:30;22:45;90
08.01.2023;22:45;23:00;90
08.01.2023;23:00;23:15;91
08.01.2023;23:15;23:30;90
08.01.2023;23:30;23:45;91
08.01.2023;23:45;00:00;90
09.01.2023;00:00;00:15;90
09.01.2023;00:15;00:30;90
09.01.2023;00:30;00:45;90
09.01.2023;00:45;01:00;91
09.01.2023;01:00;01:15;90
09.01.2023;01:15;01:30;91
09.01.2023;01:30;01:45;91
09.01.2023;01:45;02:00;90
09.01.2023;02:00;02:15;91
09.01.2023;02:15;02:30;90
09.01.2023;02:30;02:45;91
09.01.2023;02:45;03:00;91
09.01.2023;03:00;03:15;90
09.01.2023;03:15;03:30;90
09.01.2023;03:30;03:45;91
09.01.2023;03:45;04:00;90
09.01.2023;04:00;04:15;91
09.01.2023;04:15;04:30;90
09.01.2023;04:30;04:45;90
09.01.2023;04:45;05:00;90
09.01.2023;05:00;05:15;90
09.01.2023;05:15;05:30;90
09.01.2023;05:30;05:45;91
09.01.2023;05:45;06:00;90
09.01.2023;06:00;06:15;89
09.01.2023;06:15;06:30;89
09.01.2023;06:30;06:45;90
09.01.2023;06:45;07:00;90
09.01.2023;07:00;07:15;90
09.01.2023;07:15;07:30;90
09.01.2023;07:30;07:45;89
09.01.2023;07:45;08:00;90
09.01.2023;08:00;08:15;89
09.01.2023;08:15;08:30;90
09.01.2023;08:30;08:45;90
09.01.2023;08:45;09:00;92
09.01.2023;09:00;09:15;95
09.01.2023;09:15;09:30;97
09.01.2023;09:30;09:45;97
09.01.2023;09:45;10:00;91
09.01.2023;10:00;10:15;96
09.01.2023;10:15;10:30;93
09.01.2023;10:30;10:45;93
09.01.2023;10:45;11:00;92
09.01.2023;11:00;11:15;97
09.01.2023;11:15;11:30;95
09.01.2023;11:30;11:45;98
09.01.2023;11:45;12:00;96
09.01.2023;12:00;12:15;95
09.01.2023;12:15;12:30;95
09.01.2023;12:30;12:45;95
09.01.2023;12:45;13:00;94
09.01.2023;13:00;13:15;93
09.01.2023;13:15;13:30;94
09.01.2023;13:30;13:45;97
09.01.2023;13:45;14:00;96
09.01.2023;14:00;14:15;104
09.01.2023;14:15;14:30;97
09.01.2023;14:30;14:45;92
09.01.2023;14:45;15:00;91
09.01.2023;15:00;15:15;91
09.01.2023;15:15;15:30;92
09.01.2023;15:30;15:45;93
09.01.2023;15:45;16:00;92
09.01.2023;16:00;16:15;90
09.01.2023;16:15;16:30;89
09.01.2023;16:30;16:45;89
09.01.2023;16:45;17:00;90
09.01.2023;17:00;17:15;89
09.01.2023;17:15;17:30;89
09.01.2023;17:30;17:45;89
09.01.2023;17:45;18:00;90
09.01.2023;18:00;18:15;90
09.01.2023;18:15;18:30;89
09.01.2023;18:30;18:45;89
09.01.2023;18:45;19:00;90
09.01.2023;19:00;19:15;90
09.01.2023;19:15;19:30;89
09.01.2023;19:30;19:45;89
09.01.2023;19:45;20:00;89
09.01.2023;20:00;20:15;91
09.01.2023;20:15;20:30;89
09.01.2023;20:30;20:45;89
09.01.2023;20:45;21:00;89
09.01.2023;21:00;21:15;90
09.01.2023;21:15;21:30;90
09.01.2023;21:30;21:45;89
09.01.2023;21:45;22:00;89
09.01.2023;22:00;22:15;90
09.01.2023;22:15;22:30;91
09.01.2023;22:30;22:45;90
09.01.2023;22:45;23:00;90
09.01.2023;23:00;23:15;90
09.01.2023;23:15;23:30;91
09.01.2023;23:30;23:45;90
09.01.2023;23:45;00:00;91
10.01.2023;00:00;00:15;90
10.01.2023;00:15;00:30;91
10.01.2023;00:30;00:45;90
10.01.2023;00:45;01:00;91
10.01.2023;01:00;01:15;90
10.01.2023;01:15;01:30;91
10.01.2023;01:30;01:45;91
10.01.2023;01:45;02:00;90
10.01.2023;02:00;02:15;91
10.01.2023;02:15;02:30;90
10.01.2023;02:30;02:45;91
10.01.2023;02:45;03:00;90